Theta_e
324 326 326 327 329 329 329 327 325 323 322 322 320 319 317 316 315 314 313 312 311 311 310 309 308 307 307 308 307 306 308 310
323 322 323 324 324 325 323 319 317 321 320 318 315 315 315 315 313 312 312 312 312 311 309 306 306 307 306 306 306 305 306 307
320 320 319 318 318 317 317 316 316 315 315 315 314 315 314 314 313 313 311 310 309 307 305 305 305 305 306 305 304 306 307 306
319 318 317 317 316 316 315 315 314 314 314 314 313 313 313 314 313 312 309 307 306 304 303 303 303 303 304 303 303 306 305 306
318 318 317 317 316 316 315 315 314 314 313 313 313 313 313 311 309 308 307 305 304 302 302 302 301 301 302 304 305 304 304 304
316 317 318 318 317 316 315 315 315 314 314 314 313 311 309 310 307 306 305 304 302 301 300 300 302 303 303 302 302 302 302 301
316 318 318 317 317 316 316 315 315 314 314 313 311 310 308 307 305 304 303 301 301 300 301 301 301 301 301 300 300 300 300 299
313 316 317 317 317 316 316 316 315 314 313 312 310 308 306 305 303 302 301 300 300 300 299 298 298 298 298 298 298 298 297 297
313 315 315 316 315 315 315 314 314 311 310 309 307 305 305 304 303 301 300 300 300 297 297 298 298 297 297 297 296 296 296 296
313 315 314 314 313 313 313 312 310 309 308 306 305 304 304 303 301 301 300 299 296 295 297 297 296 295 295 295 295 295 293 294
312 312 311 311 312 311 310 310 309 308 307 305 304 303 302 302 301 299 298 297 295 294 295 295 295 295 295 294 293 293 292 292
310 311 311 311 310 310 309 308 307 307 306 305 304 302 302 300 299 298 297 296 295 295 295 292 291 290 290 290 290 289 290 290
310 311 310 309 307 306 305 305 306 306 305 304 303 302 300 299 298 297 296 296 295 294 291 290 290 289 289 289 289 289 288 287
308 308 308 307 305 305 304 304 304 303 304 304 302 301 300 299 297 296 295 294 293 291 290 290 289 289 289 289 288 287 286 286
307 306 307 306 305 304 304 303 302 302 304 303 303 301 300 298 296 295 294 293 292 290 290 289 289 289 289 288 287 286 285 285
306 305 304 304 304 303 300 300 300 302 302 302 302 301 299 298 297 295 293 293 291 289 289 289 289 288 288 287 286 285 285 283
305 305 304 304 302 300 300 298 297 297 296 297 301 299 298 297 296 295 295 291 290 289 289 289 289 288 287 286 285 284 284 283
304 304 304 301 300 298 296 296 296 295 294 297 298 298 297 297 296 295 293 290 289 289 289 288 288 287 286 285 285 284 284 282
303 304 300 299 297 296 295 295 295 294 296 296 296 296 296 295 294 293 290 290 289 289 288 288 287 286 285 285 285 284 282 282
Wind_Speed
28 30 31 29 24 24 27 22 15 20 16 9 6 7 9 11 9 10 7 6 8 12 19 20 17 20 21 23 25 27 26 25
32 34 36 34 32 31 24 20 18 14 10 9 11 10 9 13 12 10 9 10 12 16 21 13 13 14 19 22 22 25 28 27
24 32 34 34 28 23 21 20 19 17 16 16 12 10 8 6 9 10 13 14 17 13 14 16 17 17 18 21 24 26 19 16
15 23 27 27 26 22 19 17 13 16 12 7 6 8 9 13 16 17 17 13 12 13 15 16 18 18 20 23 23 18 21 18
15 20 22 20 19 16 15 11 9 6 5 9 8 8 10 13 12 10 9 10 14 17 19 22 24 25 24 19 15 12 13 10
10 19 18 13 11 9 7 5 4 6 3 3 1 3 4 6 8 7 11 16 20 20 23 22 21 18 16 17 16 14 11 10
14 21 17 13 8 5 3 3 11 7 3 1 2 4 7 7 7 10 15 18 17 20 18 18 18 15 15 13 10 10 10 11
7 12 15 14 10 5 1 3 5 7 6 5 5 6 6 8 10 13 16 14 15 13 17 20 18 16 15 14 12 11 12 15
7 9 6 6 6 7 7 5 7 10 9 9 9 8 7 7 9 12 11 7 9 18 21 16 16 19 20 18 18 20 22 23
8 17 18 17 18 15 12 11 10 11 9 6 7 8 7 7 10 6 4 9 18 18 18 18 19 22 21 21 22 24 21 17
10 17 20 19 19 13 13 11 11 12 6 8 8 8 10 9 4 3 8 13 18 19 18 20 20 21 20 21 21 22 21 20
6 13 16 17 18 13 13 15 16 9 7 10 11 12 3 1 5 6 9 14 17 13 14 15 18 17 19 20 20 20 18 15
10 15 18 19 20 19 21 20 16 6 11 11 13 15 10 11 6 9 10 10 10 9 12 15 15 18 20 21 20 13 17 20
10 17 18 18 17 20 21 19 13 18 16 17 14 8 13 15 13 6 2 5 7 10 12 11 13 17 20 18 14 17 20 22
7 10 15 15 12 15 18 20 21 24 10 20 23 19 17 10 3 7 7 10 11 10 8 12 14 16 14 12 16 17 19 22
6 6 12 16 13 16 18 23 23 17 24 23 26 21 9 11 12 8 19 14 10 5 12 14 13 9 11 13 16 20 24 25
7 10 14 14 13 16 21 20 24 25 26 30 19 7 9 9 10 12 22 8 5 12 14 14 5 8 10 14 22 25 24 21
6 10 17 15 13 16 20 20 23 25 29 24 18 18 15 15 14 15 9 5 10 14 12 4 9 10 10 20 21 20 22 20
9 16 14 15 13 17 19 19 22 24 18 22 19 18 14 13 6 18 3 10 15 8 8 11 10 16 21 18 16 18 18 20
Wind_Direction
56 73 77 80 104 131 122 134 166 196 172 136 111 108 77 79 81 67 60 48 14 347 334 334 329 328 320 321 327 326 326 323
67 67 78 85 91 111 113 115 88 133 125 110 72 76 76 93 85 56 28 351 334 328 339 341 342 334 327 323 323 324 318 319
67 65 69 82 84 87 88 78 76 74 84 77 67 56 50 33 12 46 30 13 2 13 7 0 354 350 335 332 331 320 318 329
79 71 70 74 79 76 68 67 72 70 69 72 44 13 0 1 355 350 10 21 23 10 355 348 344 341 334 328 325 317 322 330
90 84 74 67 68 72 76 74 61 43 15 0 20 19 8 345 5 23 15 9 1 355 348 343 337 333 332 331 331 330 326 355
96 101 102 97 95 85 65 48 12 318 307 355 68 348 30 34 42 14 355 350 349 347 349 339 339 336 337 340 341 339 340 346
128 128 131 138 139 131 114 57 47 21 272 304 38 94 83 48 23 5 357 354 351 349 350 351 345 340 335 340 351 354 0 353
127 142 157 163 167 179 201 41 17 17 89 89 74 80 68 67 34 8 352 345 350 1 357 356 355 354 348 345 342 345 340 334
134 144 140 101 65 51 59 24 63 62 60 64 69 51 44 27 357 345 342 8 16 351 345 349 350 347 343 342 337 331 327 317
89 76 75 64 64 62 55 67 61 47 25 32 22 6 1 347 337 348 64 4 355 353 343 337 335 332 328 326 321 321 327 323
70 69 57 47 40 49 48 37 21 5 27 22 19 1 335 336 352 42 359 351 351 348 337 333 333 333 328 327 323 324 323 319
85 74 58 46 32 23 15 4 351 340 349 340 324 319 299 221 290 311 330 333 331 325 325 335 339 341 339 335 336 338 341 1
63 52 37 27 28 7 345 336 338 330 319 313 319 312 274 274 275 310 313 317 311 320 332 336 342 341 342 340 338 343 343 348
42 27 19 13 3 354 339 329 333 326 316 312 318 336 313 305 303 296 298 309 301 318 327 333 336 336 334 328 330 337 337 336
38 11 357 352 347 344 344 340 339 326 307 321 305 292 294 274 266 326 315 302 300 309 328 321 328 330 323 316 322 327 331 332
17 350 350 341 347 347 353 342 347 338 327 320 306 305 269 264 260 262 315 281 295 328 329 311 321 331 312 320 327 333 331 330
1 328 329 334 349 345 340 4 2 354 345 340 315 286 308 292 273 298 285 290 315 345 316 312 336 330 326 332 330 325 325 328
328 318 316 328 335 9 14 2 358 358 356 3 359 343 329 308 288 280 258 300 339 326 315 6 348 333 329 329 321 319 322 321
305 305 327 350 27 14 3 0 357 352 2 359 356 348 328 310 308 296 338 348 314 344 359 346 343 340 333 332 322 321 319 317